Location: Chiroubles
(46.1812°N, 4.6660°E)
Time: 03:54:45
(UTC+00:00)

Tiros 1 - Pass Details

Date: 03 December 2020
Orbit: 630 x 663 km, 48.4° (Epoch: 16 January)

Event Time Altitude Azimuth Distance (km) Brightness Sun altitude
Rises 16:53:35 0° 282° (WNW) 2,995 11.6 -9.7°
Reaches altitude 10° 16:55:57 10° 284° (WNW) 2,080 10.6 -10.0°
Maximum altitude 17:00:46 73° 10° (N) 690 7.2 -10.8°
Enters shadow 17:04:59 13° 95° (E) 1,857 9.0 -11.5°
